Location: Kaikalui
(16.5250°N, 81.1500°E)
Time: 15:41:42
(UTC+00:00)

CZ-3C R/B - Pass Details

Date: 14 April 2026
Orbit: 270 x 30756 km, 20.3° (Epoch: 11 May)

Event Time Altitude Azimuth Distance (km) Brightness Sun altitude
Rises 13:28:35 0° 268° (W) 2,509 6.4 -9.7°
Reaches altitude 10° 13:29:55 10° 259° (W) 1,968 5.3 -10.0°
Maximum altitude 13:33:48 44° 185° (S) 1,599 3.6 -11.0°
Enters shadow 13:49:26 13° 120° (ESE) 7,800 6.5 -14.6°
